Other Public Products
Issued by NWS Charleston, SC

Home | Current Version | Previous Version | Text Only | Print | Product List | Glossary On
Versions: 1 2 3 4 5 6 7 8 9 10 11 12 13 14 15 16 17 18 19 20 21 22 23 24 25 26 27 28 29 30 31 32 33 34 35 36 37 38 39 40 41 42 43 44 45 46 47 48 49 50
747
FPUS82 KCHS 262027
OPUCHS

TEST...KCHS/KSAV Gateway Observations...TEST
National Weather Service Charleston SC
400 PM EDT TUE SEP 26 2017

NOTE: "fair" indicates few or no clouds below 12,000 feet with no
significant weather and/or obstructions to visibility.

SCZ050-WAZ558-NCZ071-TXZ119-213-PAZ071-DCZ001-FLZ074-172-MI076-
NYZ176-178-MAZ016-IL014-TNZ027-NJZ106-GAZ044-MD014-262100-

...Gateway Observations for Charleston International...

CITY           SKY/WX    TMP DP  RH WIND       PRES   REMARKS
Chas Airport   MOSUNNY   91  73  55 N12       29.81F HX  99
Seattle        MOSUNNY   70  54  56 NE6       30.18F
Charlotte      MOSUNNY   87  70  57 MISG      29.91F HX  92
Dallas DFW     CLOUDY    91  65  41 CALM      29.87F HX  93
Dallas Love    PTSUNNY   89  64  43 E5        29.88F HX  90
Philladelphia  PTSUNNY   84  67  56 E7        29.96F
Wash National  PTSUNNY   85  69  58 NE9       29.94F
Baltimore      CLOUDY    83  69  62 NE7       29.94F
Miami          PTSUNNY   87  74  64 SE7       29.87F HX  95
Detroit        MOSUNNY   93  59  31 W6        29.94F HX  92
Newark         CLOUDY    83  67  58 SE6       29.97F
Laguardia      CLOUDY    79  68  69 NE10      29.98F
J F K          PTSUNNY   76  67  73 SE6       29.99F
Boston Logan   MOSUNNY   78  69  73 E8        29.98S
Ft. Lauderdale PTSUNNY   87  75  67 SE12      29.86F HX  96
Chicago O`Hare PTSUNNY   90  59  35 SW18      29.90F
Chicago Midway PTSUNNY   92  59  33 SW17      29.91F HX  91
Houston Bush   PTSUNNY   88  69  53 SE6       29.85F HX  92
Houston Hobby  PTSUNNY   89  71  55 SE10      29.84F HX  95
Nashville      MOSUNNY   90  63  40 N9        29.96F HX  91
Atlanta        MOSUNNY   87  62  43 N13       29.95F

$$

GAZ044-118-TXZ119-213-NCZ071-DCZ001-MDZ014-506-PAZ021-071-NJZ106-
NYZ176-178-MAZ106-OHZ011-021-055-MIZ076-KYZ091-ILZ014-INZ047-
MNZ060-ONZ431-262100-

...Gateway Observations for Savannah International...

CITY           SKY/WX    TMP DP  RH WIND       PRES   REMARKS
Savannah Arpt  MOSUNNY   91  69  48 N9        29.84F HX  96
Atlanta        MOSUNNY   87  62  43 N13       29.95F
Charlotte      MOSUNNY   87  70  57 MISG      29.91F HX  92
Dallas DFW     CLOUDY    91  65  41 CALM      29.87F HX  93
Houston Bush   PTSUNNY   88  69  53 SE6       29.85F HX  92
Wash National  PTSUNNY   85  69  58 NE9       29.94F
Wash Dulles    PTSUNNY   84  67  56 N10       29.94F
Baltimore      CLOUDY    83  69  62 NE7       29.94F
Philadelphia   PTSUNNY   84  67  56 E7        29.96F
Newark         CLOUDY    83  67  58 SE6       29.97F
Laguardia      CLOUDY    79  68  69 NE10      29.98F
J F K          PTSUNNY   76  67  73 SE6       29.99F
Boston         MOSUNNY   78  69  73 E8        29.98S
Pittsburg      MOSUNNY   87  62  43 CALM      29.99F
Akron          MOSUNNY   92  58  31 W3        29.99F HX  91
Cleveland      MOSUNNY   91  60  35 N8        29.98F HX  90
Cincinnati     MOSUNNY   88  63  43 S6        29.98F
Columbus       SUNNY     88  58  35 NW6       29.95F
Detroit        MOSUNNY   93  59  31 W6        29.94F HX  92
Chicago O`Hare PTSUNNY   90  59  35 SW18      29.90F
Minneapolis    CLOUDY    63  53  70 NW13      30.00R
Indianapolis   MOSUNNY   90  60  36 SW7       29.96F
Toronto Canada MOSUNNY   86  66  51 S13G20    29.92F

$$




USA.gov is the U.S. government's official web portal to all federal, state and local government web resources and services.